Terug naar catalogus

COSMOS 2499 DEB

LostPO
NORAD 55726·DEBRIS·🇷🇺 Russia

Gelanceerd May 23, 2014 vanaf Plesetsk Cosmodrome

Loading…

Volgende Passages (komende 24 uur)

TLE

VerouderdSource: Space-Track

Epoch: Mar 18, 2023, 22:38 UTC

1 55726U 14028AN  23077.94320041 -.00029312  00000-0 -11992+0 0  9992
2 55726  82.3344 332.0236 0149930 280.8272  77.5986 12.82043536  7794

Volg COSMOS 2499 DEB in realtime met AllMySat

Download on the App Store